Weather History for Chicopee, MA

Change the Weather History Date:

Tuesday, May 21, 2013

  Actual Average Record
Temperature  
Mean Temperature 73 °F -  
Max Temperature 90 °F 66 °F 90 °F (2013)
Min Temperature 55 °F 47 °F 32 °F (2002)
Cooling Degree Days 8    
Growing Degree Days 23 (Base 50)    
Moisture  
Dew Point 61 °F    
Average Humidity 95    
Maximum Humidity 100    
Minimum Humidity 46    
Precipitation  
Precipitation 0.23 in - - ()
Sea Level Pressure  
Sea Level Pressure 29.93 in    
Wind  
Wind Speed 3 mph (ENE)    
Max Wind Speed 20 mph    
Max Gust Speed 28 mph    
Visibility 4 miles    
Events Fog , Rain , Thunderstorm    
Averages and records for this station are not official NWS values.
T = Trace of Precipitation, MM = Missing Value Source: NWS Daily Summary

Daily Weather History Graph

Daily Weather History Graph

Search for Another Location

Airport:

Trip Planner

Search our weather history database for the weather conditions in past years. The results will help you decide how hot, cold, wet, or windy it might be!

Date:

Astronomy

May. 21, 2013 Rise Set
Actual Time 5:23 AM EDT 8:10 PM EDT
Civil Twilight 4:50 AM EDT 8:43 PM EDT
Nautical Twilight 4:09 AM EDT 9:24 PM EDT
Astronomical Twilight 3:22 AM EDT 10:12 PM EDT
Moon 4:17 PM EDT (5/21) 2:54 AM EDT (5/21)
Length of Visible Light 15h 52m
Length of Day
14h 47m
Waxing Gibbous, 84% of the Moon is Illuminated
May 21
Waxing Gibbous
May 25
Full
May 31
Last Quarter
Jun 8
New
Jun 16
First Quarter

Hourly Weather History & Observations

Time (EDT) Temp. Heat Index Dew Point Humidity Pressure Visibility Wind Dir Wind Speed Gust Speed Precip Events Conditions
12:08 AM 62.6 °F - 60.8 °F 94% 29.96 in 7.0 mi NNE 1.2 mph - N/A   Light Drizzle
12:14 AM 62.6 °F - 60.8 °F 94% 29.97 in 2.0 mi NNE 3.5 mph - N/A   Light Drizzle
12:15 AM 60.8 °F - 60.8 °F 100% 29.97 in 1.5 mi NNE 3.5 mph - N/A   Light Drizzle
12:16 AM 60.8 °F - 60.8 °F 100% 29.97 in 1.2 mi NNE 3.5 mph - N/A   Light Drizzle
12:17 AM 60.8 °F - 60.8 °F 100% 29.96 in 1.2 mi NNE 3.5 mph - N/A   Light Drizzle
12:18 AM 60.8 °F - 60.8 °F 100% 29.96 in 1.0 mi NE 3.5 mph - N/A   Light Drizzle
12:19 AM 60.8 °F - 60.8 °F 100% 29.96 in 0.8 mi NE 4.6 mph - N/A   Light Drizzle
12:20 AM 60.8 °F - 60.8 °F 100% 29.96 in 0.8 mi NE 4.6 mph - N/A   Light Drizzle
12:22 AM 60.8 °F - 60.8 °F 100% 29.96 in 0.5 mi NNE 4.6 mph - N/A Fog Light Drizzle
12:23 AM 60.8 °F - 60.8 °F 100% 29.96 in 0.5 mi NNE 4.6 mph - N/A Fog Fog
12:30 AM 60.8 °F - 60.8 °F 100% 29.96 in 0.8 mi NE 3.5 mph - N/A   Clear
12:33 AM 60.8 °F - 60.8 °F 100% 29.97 in 0.8 mi NE 3.5 mph - N/A   Clear
12:34 AM 60.8 °F - 60.8 °F 100% 29.97 in 1.0 mi NE 3.5 mph - N/A   Clear
12:35 AM 62.6 °F - 60.8 °F 94% 29.97 in 1.0 mi NE 3.5 mph - N/A   Clear
12:36 AM 62.6 °F - 62.6 °F 100% 29.96 in 1.2 mi NE 3.5 mph - N/A   Clear
12:37 AM 62.6 °F - 62.6 °F 100% 29.96 in 1.5 mi NE 3.5 mph - N/A Rain Light Rain
12:38 AM 62.6 °F - 62.6 °F 100% 29.96 in 1.8 mi NE 4.6 mph - N/A Rain Light Rain
12:39 AM 62.6 °F - 62.6 °F 100% 29.96 in 2.0 mi NE 3.5 mph - N/A Rain Light Rain
12:40 AM 62.6 °F - 62.6 °F 100% 29.96 in 3.0 mi NE 3.5 mph - N/A Rain Light Rain
12:51 AM 60.8 °F - 60.8 °F 100% 29.96 in 4.0 mi NE 2.3 mph - N/A   Partly Cloudy
12:58 AM 61.0 °F - 60.8 °F 99% 29.98 in 6.0 mi NE 2.3 mph - 0.00 in   Partly Cloudy
12:59 AM 60.8 °F - 60.8 °F 100% 29.96 in 6.0 mi Calm Calm - N/A   Light Drizzle
1:00 AM 60.8 °F - 60.8 °F 100% 29.96 in 6.0 mi Calm Calm - N/A   Partly Cloudy
1:01 AM 60.8 °F - 60.8 °F 100% 29.96 in 5.0 mi East 1.2 mph - N/A   Light Drizzle
1:09 AM 60.8 °F - 60.8 °F 100% 29.96 in 5.0 mi Calm Calm - N/A   Clear
1:22 AM 60.8 °F - 60.8 °F 100% 29.96 in 2.5 mi Calm Calm - N/A   Clear
1:23 AM 62.6 °F - 60.8 °F 94% 29.96 in 2.0 mi Calm Calm - N/A   Clear
1:24 AM 62.6 °F - 60.8 °F 94% 29.96 in 1.8 mi Calm Calm - N/A   Clear
1:25 AM 62.6 °F - 60.8 °F 94% 29.96 in 1.5 mi Calm Calm - N/A   Clear
1:26 AM 62.6 °F - 60.8 °F 94% 29.96 in 1.2 mi Calm Calm - N/A   Clear
1:27 AM 62.6 °F - 60.8 °F 94% 29.96 in 1.0 mi Calm Calm - N/A   Clear
1:28 AM 62.6 °F - 60.8 °F 94% 29.96 in 0.8 mi Calm Calm - N/A   Clear
1:29 AM 62.6 °F - 60.8 °F 94% 29.96 in 0.8 mi Calm Calm - N/A   Clear
1:30 AM 62.6 °F - 60.8 °F 94% 29.96 in 0.8 mi Calm Calm - N/A   Clear
1:32 AM 62.6 °F - 60.8 °F 94% 29.96 in 0.5 mi Calm Calm - N/A Fog Fog
1:36 AM 60.8 °F - 60.8 °F 100% 29.96 in 0.5 mi Calm Calm - N/A Fog Fog
1:39 AM 60.8 °F - 60.8 °F 100% 29.96 in 0.5 mi NE 1.2 mph - N/A Fog Fog
1:44 AM 60.8 °F - 60.8 °F 100% 29.95 in 0.5 mi East 3.5 mph - N/A Fog Light Drizzle
1:45 AM 60.8 °F - 60.8 °F 100% 29.95 in 0.8 mi East 3.5 mph - N/A   Light Drizzle
1:46 AM 60.8 °F - 60.8 °F 100% 29.95 in 0.8 mi ESE 3.5 mph - N/A   Light Drizzle
1:47 AM 60.8 °F - 60.8 °F 100% 29.95 in 1.0 mi ESE 3.5 mph - N/A   Light Drizzle
1:48 AM 60.8 °F - 60.8 °F 100% 29.95 in 1.0 mi SE 3.5 mph - N/A   Light Drizzle
1:49 AM 60.8 °F - 60.8 °F 100% 29.95 in 1.2 mi SE 3.5 mph - N/A   Light Drizzle
1:52 AM 60.8 °F - 60.8 °F 100% 29.95 in 1.5 mi SSE 3.5 mph - N/A   Light Drizzle
1:53 AM 60.8 °F - 60.8 °F 100% 29.95 in 1.8 mi SE 2.3 mph - N/A   Light Drizzle
1:54 AM 60.8 °F - 60.8 °F 100% 29.94 in 3.0 mi SE 2.3 mph - N/A   Clear
1:58 AM 60.4 °F - 60.3 °F 99% 29.96 in 7.0 mi SE 2.3 mph - 0.00 in   Clear
2:15 AM 62.6 °F - 62.6 °F 100% 29.94 in 8.0 mi SE 2.3 mph - N/A   Light Drizzle
2:25 AM 62.6 °F - 62.6 °F 100% 29.94 in 7.0 mi ESE 2.3 mph - N/A   Clear
2:46 AM 60.8 °F - 60.8 °F 100% 29.93 in 2.5 mi SE 2.3 mph - N/A   Clear
2:47 AM 60.8 °F - 60.8 °F 100% 29.92 in 1.8 mi ESE 2.3 mph - N/A   Clear
2:48 AM 60.8 °F - 60.8 °F 100% 29.93 in 1.5 mi ESE 2.3 mph - N/A   Clear
2:49 AM 60.8 °F - 60.8 °F 100% 29.93 in 1.2 mi ESE 2.3 mph - N/A   Clear
2:50 AM 60.8 °F - 60.8 °F 100% 29.93 in 1.2 mi ESE 2.3 mph - N/A   Clear
2:51 AM 60.8 °F - 60.8 °F 100% 29.93 in 1.0 mi ESE 2.3 mph - N/A   Clear
2:55 AM 60.8 °F - 59.0 °F 94% 29.93 in 1.0 mi Calm Calm - N/A   Light Drizzle
2:56 AM 60.8 °F - 59.0 °F 94% 29.93 in 1.2 mi Calm Calm - N/A   Light Drizzle
2:57 AM 60.8 °F - 60.8 °F 100% 29.93 in 1.2 mi SSE 1.2 mph - N/A   Light Drizzle
2:58 AM 60.8 °F - 60.8 °F 100% 29.95 in 1.2 mi SSE 2.3 mph - 0.00 in   Light Drizzle
2:59 AM 60.8 °F - 60.8 °F 100% 29.93 in 1.8 mi South 1.2 mph - N/A   Light Drizzle
3:00 AM 60.8 °F - 60.8 °F 100% 29.93 in 2.0 mi South 1.2 mph - N/A   Light Drizzle
3:01 AM 60.8 °F - 60.8 °F 100% 29.93 in 2.5 mi South 2.3 mph - N/A   Light Drizzle
3:04 AM 60.8 °F - 60.8 °F 100% 29.92 in 1.5 mi Variable 1.2 mph - N/A   Light Drizzle
3:05 AM 60.8 °F - 60.8 °F 100% 29.92 in 1.0 mi Variable 1.2 mph - N/A   Light Drizzle
3:06 AM 60.8 °F - 60.8 °F 100% 29.92 in 0.8 mi Variable 1.2 mph - N/A   Clear
3:07 AM 60.8 °F - 60.8 °F 100% 29.92 in 0.8 mi SSE 1.2 mph - N/A   Clear
3:08 AM 60.8 °F - 60.8 °F 100% 29.92 in 0.8 mi SSE 1.2 mph - N/A   Clear
3:09 AM 60.8 °F - 60.8 °F 100% 29.92 in 0.8 mi Calm Calm - N/A   Clear
3:10 AM 60.8 °F - 60.8 °F 100% 29.92 in 0.5 mi Calm Calm - N/A Fog Fog
3:13 AM 60.8 °F - 60.8 °F 100% 29.92 in 0.5 mi Calm Calm - N/A Fog Fog
3:17 AM 60.8 °F - 60.8 °F 100% 29.92 in 0.5 mi Calm Calm - N/A Fog Fog
3:25 AM 59.0 °F - 59.0 °F 100% 29.92 in 0.8 mi Calm Calm - N/A   Clear
3:26 AM 59.0 °F - 59.0 °F 100% 29.93 in 0.8 mi Calm Calm - N/A   Clear
3:27 AM 60.8 °F - 59.0 °F 94% 29.93 in 0.8 mi Calm Calm - N/A   Clear
3:29 AM 59.0 °F - 59.0 °F 100% 29.93 in 0.8 mi Calm Calm - N/A   Clear
3:31 AM 59.0 °F - 59.0 °F 100% 29.93 in 1.0 mi Calm Calm - N/A   Clear
3:32 AM 59.0 °F - 59.0 °F 100% 29.93 in 1.0 mi Calm Calm - N/A   Clear
3:33 AM 59.0 °F - 59.0 °F 100% 29.93 in 1.5 mi Calm Calm - N/A   Clear
3:34 AM 59.0 °F - 59.0 °F 100% 29.93 in 2.5 mi Calm Calm - N/A   Clear
3:35 AM 59.0 °F - 59.0 °F 100% 29.92 in 3.0 mi Calm Calm - N/A   Clear
3:48 AM 59.0 °F - 57.2 °F 94% 29.93 in 2.5 mi Calm Calm - N/A   Clear
3:49 AM 59.0 °F - 57.2 °F 94% 29.93 in 1.8 mi Calm Calm - N/A   Clear
3:50 AM 59.0 °F - 57.2 °F 94% 29.93 in 1.5 mi Calm Calm - N/A   Clear
3:51 AM 59.0 °F - 57.2 °F 94% 29.92 in 1.2 mi Calm Calm - N/A   Clear
3:54 AM 59.0 °F - 59.0 °F 100% 29.92 in 1.5 mi Calm Calm - N/A   Clear
3:55 AM 59.0 °F - 59.0 °F 100% 29.92 in 1.5 mi Calm Calm - N/A   Clear
3:57 AM 59.0 °F - 59.0 °F 100% 29.92 in 1.8 mi Calm Calm - N/A   Clear
3:58 AM 59.0 °F - 59.0 °F 100% 29.94 in 1.8 mi Calm Calm - 0.00 in   Clear
3:59 AM 59.0 °F - 59.0 °F 100% 29.92 in 2.5 mi North 1.2 mph - N/A   Clear
4:00 AM 59.0 °F - 59.0 °F 100% 29.92 in 3.0 mi NNE 1.2 mph - N/A   Clear
4:03 AM 59.0 °F - 59.0 °F 100% 29.92 in 2.0 mi NNE 2.3 mph - N/A   Clear
4:04 AM 59.0 °F - 59.0 °F 100% 29.92 in 1.2 mi NNE 2.3 mph - N/A   Clear
4:05 AM 59.0 °F - 59.0 °F 100% 29.92 in 1.0 mi NNE 2.3 mph - N/A   Clear
4:06 AM 59.0 °F - 59.0 °F 100% 29.93 in 0.8 mi NE 2.3 mph - N/A   Clear
4:07 AM 59.0 °F - 59.0 °F 100% 29.93 in 0.5 mi NE 3.5 mph - N/A Fog Fog
4:08 AM 59.0 °F - 59.0 °F 100% 29.93 in 0.5 mi NE 3.5 mph - N/A Fog Fog
4:09 AM 59.0 °F - 59.0 °F 100% 29.93 in 0.5 mi NNE 3.5 mph - N/A Fog Fog
4:10 AM 59.0 °F - 59.0 °F 100% 29.93 in 0.2 mi NNE 3.5 mph - N/A Fog Fog
4:14 AM 57.2 °F - 57.2 °F 100% 29.93 in 0.2 mi NNE 2.3 mph - N/A Fog Fog
4:19 AM 57.2 °F - 57.2 °F 100% 29.93 in 0.2 mi NE 2.3 mph - N/A Fog Fog
4:22 AM 59.0 °F - 59.0 °F 100% 29.93 in 0.2 mi NE 2.3 mph - N/A Fog Fog
4:23 AM 59.0 °F - 59.0 °F 100% 29.93 in 0.5 mi NE 2.3 mph - N/A Fog Fog
4:26 AM 59.0 °F - 59.0 °F 100% 29.93 in 0.8 mi NE 2.3 mph - N/A   Mist
4:27 AM 59.0 °F - 59.0 °F 100% 29.93 in 0.8 mi NE 2.3 mph - N/A   Mist
4:28 AM 59.0 °F - 59.0 °F 100% 29.93 in 1.0 mi NE 2.3 mph - N/A   Mist
4:29 AM 59.0 °F - 59.0 °F 100% 29.93 in 1.2 mi NE 2.3 mph - N/A   Mostly Cloudy
4:30 AM 59.0 °F - 59.0 °F 100% 29.93 in 1.2 mi NE 2.3 mph - N/A   Light Drizzle
4:31 AM 59.0 °F - 59.0 °F 100% 29.93 in 1.5 mi NE 2.3 mph - N/A   Light Drizzle
4:32 AM 59.0 °F - 59.0 °F 100% 29.93 in 1.5 mi NE 2.3 mph - N/A   Light Drizzle
4:33 AM 59.0 °F - 59.0 °F 100% 29.93 in 1.8 mi NE 2.3 mph - N/A   Light Drizzle
4:35 AM 59.0 °F - 59.0 °F 100% 29.93 in 2.0 mi NNE 2.3 mph - N/A   Light Drizzle
4:37 AM 59.0 °F - 59.0 °F 100% 29.94 in 2.5 mi NNE 2.3 mph - N/A   Light Drizzle
4:39 AM 60.8 °F - 59.0 °F 94% 29.94 in 3.0 mi NNE 2.3 mph - N/A Rain Light Rain
4:42 AM 60.8 °F - 60.8 °F 100% 29.94 in 4.0 mi NNE 3.5 mph - N/A Rain Light Rain
4:57 AM 60.8 °F - 60.8 °F 100% 29.94 in 7.0 mi NE 3.5 mph - N/A Rain Light Rain
4:58 AM 60.3 °F - 60.1 °F 99% 29.96 in 7.0 mi NE 3.5 mph - 0.00 in Rain Light Rain
5:16 AM 60.8 °F - 60.8 °F 100% 29.93 in 5.0 mi ENE 2.3 mph - N/A   Overcast
5:20 AM 60.8 °F - 60.8 °F 100% 29.93 in 5.0 mi East 3.5 mph - N/A Rain Light Rain
5:38 AM 62.6 °F - 62.6 °F 100% 29.93 in 3.0 mi Variable 1.2 mph - N/A   Overcast
5:42 AM 62.6 °F - 62.6 °F 100% 29.94 in 2.5 mi NE 1.2 mph - N/A   Overcast
5:47 AM 62.6 °F - 62.6 °F 100% 29.94 in 3.0 mi North 3.5 mph - N/A   Overcast
5:58 AM 62.2 °F - 62.1 °F 99% 29.96 in 6.0 mi NNE 1.2 mph - 0.00 in   Overcast
6:47 AM 64.4 °F - 62.6 °F 94% 29.93 in 4.0 mi SE 3.5 mph - N/A   Light Drizzle
6:49 AM 64.4 °F - 62.6 °F 94% 29.93 in 5.0 mi Variable 3.5 mph - N/A   Overcast
6:53 AM 64.4 °F - 62.6 °F 94% 29.94 in 5.0 mi Variable 1.2 mph - N/A   Light Drizzle
6:58 AM 64.4 °F - 64.4 °F 100% 29.94 in 1.2 mi Variable 1.2 mph - N/A   Overcast
7:34 AM 64.4 °F - 64.4 °F 100% 29.93 in 1.0 mi SSW 5.8 mph - N/A   Overcast
7:58 AM 66.2 °F - 64.4 °F 94% 29.95 in 1.0 mi Calm Calm - N/A   Overcast
8:58 AM 67.8 °F - 67.3 °F 98% 29.95 in 1.5 mi WSW 5.8 mph - N/A   Overcast
9:18 AM 68.0 °F - 68.0 °F 100% 29.94 in 2.0 mi Calm Calm - N/A   Overcast
9:33 AM 69.8 °F - 68.0 °F 94% 29.94 in 3.0 mi Calm Calm - N/A   Mostly Cloudy
9:45 AM 71.6 °F - 68.0 °F 88% 29.93 in 5.0 mi Variable 4.6 mph - N/A   Partly Cloudy
9:58 AM 73.4 °F - 67.5 °F 82% 29.94 in 5.0 mi South 6.9 mph - N/A   Partly Cloudy
10:07 AM 73.4 °F - 68.0 °F 83% 29.91 in 10.0 mi SSW 5.8 mph - N/A Rain Light Rain
10:10 AM 73.4 °F - 68.0 °F 83% 29.91 in 10.0 mi South 6.9 mph - N/A   Clear
10:58 AM 76.8 °F - 67.6 °F 73% 29.92 in 10.0 mi SSW 6.9 mph - 0.00 in   Partly Cloudy
11:58 AM 81.9 °F 85.2 °F 69.3 °F 65% 29.90 in 10.0 mi SW 5.8 mph - N/A   Clear
12:58 PM 85.5 °F 88.8 °F 68.0 °F 56% 29.87 in 10.0 mi Variable 2.3 mph - N/A   Clear
1:58 PM 86.4 °F 89.7 °F 67.8 °F 54% 29.86 in 10.0 mi Variable 4.6 mph - N/A   Mostly Cloudy
2:58 PM 89.8 °F 92.9 °F 67.3 °F 47% 29.85 in 10.0 mi South 8.1 mph - N/A   Clear
3:35 PM 91.4 °F 95.4 °F 68.0 °F 46% 29.81 in 10.0 mi South 11.5 mph - N/A   Light Drizzle
3:36 PM 91.4 °F 95.4 °F 68.0 °F 46% 29.81 in 10.0 mi SSW 12.7 mph - N/A   Clear
3:58 PM 89.1 °F 92.1 °F 66.7 °F 48% 29.82 in 10.0 mi South 6.9 mph - 0.00 in   Clear
4:07 PM 89.6 °F 92.2 °F 66.2 °F 46% 29.79 in 10.0 mi SSE 3.5 mph - N/A   Mostly Cloudy
4:42 PM 86.0 °F 89.4 °F 68.0 °F 55% 29.79 in 10.0 mi South 10.4 mph - N/A Thunderstorm Thunderstorm
4:58 PM 85.6 °F 89.4 °F 68.7 °F 57% 29.82 in 10.0 mi SSW 12.7 mph - N/A Thunderstorm Thunderstorm
5:15 PM 84.2 °F 88.4 °F 69.8 °F 62% 29.79 in 10.0 mi SSW 16.1 mph 21.9 mph N/A Rain , Thunderstorm Light Thunderstorms and Rain
5:22 PM 80.6 °F 84.6 °F 71.6 °F 74% 29.79 in 10.0 mi South 8.1 mph - N/A Rain , Thunderstorm Light Rain
5:43 PM 78.8 °F - 69.8 °F 74% 29.81 in 10.0 mi WSW 4.6 mph - N/A Rain Light Rain
5:58 PM 78.6 °F - 71.1 °F 78% 29.84 in 10.0 mi East 3.5 mph - 0.00 in Rain Light Rain
6:58 PM 70.0 °F - 69.4 °F 98% 29.90 in 10.0 mi ENE 9.2 mph - 0.01 in Rain Light Rain
7:12 PM 68.0 °F - 68.0 °F 100% 29.87 in 10.0 mi Variable 6.9 mph - N/A Rain , Thunderstorm Light Thunderstorms and Rain
7:26 PM 66.2 °F - 66.2 °F 100% 29.89 in 4.0 mi East 9.2 mph 20.7 mph N/A Rain , Thunderstorm Light Thunderstorms and Rain
7:43 PM 64.4 °F - 64.4 °F 100% 29.88 in 2.0 mi Variable 6.9 mph 19.6 mph N/A Rain , Thunderstorm Light Thunderstorms and Rain
7:44 PM 64.4 °F - 64.4 °F 100% 29.89 in - ENE 10.4 mph 19.6 mph N/A Rain , Thunderstorm Light Thunderstorms and Rain
7:49 PM 64.4 °F - 64.4 °F 100% 29.89 in 1.5 mi East 8.1 mph 18.4 mph N/A Rain , Thunderstorm Light Thunderstorms and Rain
7:52 PM 64.4 °F - 62.6 °F 94% 29.89 in 1.5 mi Variable 3.5 mph 18.4 mph N/A Rain , Thunderstorm Light Thunderstorms and Rain
7:58 PM 62.6 °F - 62.6 °F 100% 29.91 in 3.0 mi Variable 6.9 mph 16.1 mph 0.22 in Rain , Thunderstorm Light Thunderstorms and Rain
8:01 PM 62.6 °F - 62.6 °F 100% 29.88 in 9.0 mi East 10.4 mph - N/A Rain Light Rain
8:10 PM 62.6 °F - 62.6 °F 100% 29.88 in 10.0 mi East 11.5 mph - N/A   Scattered Clouds
8:15 PM 62.6 °F - 62.6 °F 100% 29.88 in 10.0 mi East 12.7 mph 23.0 mph N/A   Overcast
8:27 PM 60.8 °F - 60.8 °F 100% 29.89 in 10.0 mi East 10.4 mph - N/A   Mostly Cloudy
8:58 PM 59.0 °F - 58.5 °F 98% 29.94 in 10.0 mi ENE 10.4 mph - 0.00 in   Overcast
9:42 PM 57.2 °F - 57.2 °F 100% 29.92 in 10.0 mi ENE 10.4 mph - N/A   Overcast
9:58 PM 56.3 °F - 55.8 °F 98% 29.93 in 10.0 mi ENE 5.8 mph - N/A   Overcast
10:58 PM 55.4 °F - 54.9 °F 98% 29.96 in 10.0 mi NE 6.9 mph - N/A   Overcast
11:40 PM 55.4 °F - 53.6 °F 94% 30.00 in 10.0 mi North 15.0 mph - N/A   Overcast
11:46 PM 55.4 °F - 55.4 °F 100% 30.00 in 10.0 mi NNE 19.6 mph 25.3 mph N/A   Light Drizzle
11:58 PM 55.2 °F - 54.1 °F 96% 30.00 in 9.0 mi NE 12.7 mph 27.6 mph 0.00 in   Light Drizzle
11:59 PM 55.4 °F - 53.6 °F 94% 29.97 in 9.0 mi ENE 13.8 mph 27.6 mph N/A   Light Drizzle